Location: Bakhuizen
(52.8696°N, 5.4575°E)
Time: 04:50:21
(UTC+00:00)

Cosmos 2297 Rocket - Pass Details

Date: 11 May 2021
Orbit: 838 x 845 km, 71.0° (Epoch: 14 June)

Event Time Altitude Azimuth Distance (km) Brightness Sun altitude
Rises 22:57:19 0° 326° (NW) 3,414 6.5 -18.5°
Reaches altitude 10° 23:00:22 10° 342° (NNW) 2,477 5.9 -18.6°
Maximum altitude 23:04:44 22° 32° (NNE) 1,769 4.4 -18.7°
Drops below altitude 10° 23:09:05 10° 83° (E) 2,472 4.6 -18.8°
Sets 23:12:06 0° 98° (E) 3,404 5.2 -18.8°
